Regional Weather Roundup
Issued by NWS Goodland, KS

Home | Current Version | Previous Version | Graphics & Text | Print | Product List | Glossary On
Versions: 1 2 3 4 5 6 7 8 9 10 11 12 13 14 15 16 17 18 19 20 21 22 23 24 25 26 27 28 29 30 31 32 33 34 35 36 37 38 39 40 41 42 43 44 45 46 47 48 49 50
000
ASUS43 KGLD 292159
RWRGLD

GOODLAND FORECAST AREA HOURLY WEATHER ROUNDUP
NATIONAL WEATHER SERVICE GOODLAND KS
400 PM MDT SUN MAY 29 2016

...OFFICIAL OBSERVATIONS...

CITY           SKY/WX    TMP DP  RH WIND       PRES   REMARKS
GOODLAND KS    CLOUDY    83  49  30 CALM      29.97F
HILL CITY KS   CLOUDY    78  51  38 SW17G26   29.99F
IMPERIAL NEB   SUNNY     82  51  34 S10       29.98F
MCCOOK NEB     CLOUDY    75  52  44 S21G29    29.98F
AKRON CO       MOSUNNY   78  44  29 N3        30.05F
BURLINGTON CO  SUNNY     83  37  19 SW13      30.01F
LIMON CO       CLOUDY    73  42  32 S5        30.09F
$$

...UNOFFICIAL OBSERVATIONS...

CITY           SKY/WX    TMP DP  RH WIND       PRES   REMARKS
GOVE KS          N/A     68  32  26 MISG        N/A
LENORA KS        N/A     69  32  25 MISG        N/A
KIT CARSON CO    N/A     82  47  29 MISG        N/A
YUMA CO          N/A     81  47  30 NE5         N/A
$$




USA.gov is the U.S. government's official web portal to all federal, state and local government web resources and services.